Location: Wien
(48.2082°N, 16.3738°E)
Time: 04:38:08
(UTC+02:00)

MOZHAYETS 4 - Pass Details

Date: 29 March 2019
Orbit: 663 x 679 km, 98.0° (Epoch: 19 April)

Event Time Altitude Azimuth Distance (km) Brightness Sun altitude
Exits shadow 02:28:51 18° 329° (NNW) 1,655 9.8 -29.2°
Drops below altitude 10° 02:30:04 10° 336° (NNW) 2,116 10.5 -29.0°
Sets 02:32:24 0° 342° (NNW) 3,038 11.4 -28.8°
